Location: Bruch
(44.2051°N, 0.4120°E)
Time: 09:08:21
(UTC+00:00)

NOSS 3-2 (C) - Pass Details

Date: 29 November 2020
Orbit: 789 x 1424 km, 63.4° (Epoch: 09 January)

Event Time Altitude Azimuth Distance (km) Brightness Sun altitude
Exits shadow 04:00:11 88° 194° (SSW) 1,308 3.9 -33.7°
Drops below altitude 10° 04:08:43 10° 146° (SSE) 3,469 6.7 -32.2°
Sets 04:11:43 0° 146° (SSE) 4,472 7.4 -31.6°
